56,28/09/2015 12:05,1443441912,59.88281,-3.86161,3,2,28/09/2015 12:05,1443441913,12.2,12,11.1,0,0,59.898,-3.9228,3,4
57,28/09/2015 13:05,1443445510,59.88281,-3.86161,10,3,28/09/2015 13:05,1443445544,12.2,23,11.1,0,0,59.8996,-3.9366,3,5
58,28/09/2015 14:05,1443449108,59.88069,-3.9329,4,2,28/09/2015 14:05,1443449158,12.2,23,11.1,0,0,59.9023,-3.9563,3,5
59,28/09/2015 15:05,1443452710,60.03473,-6.47497,156,2,28/09/2015 15:05,1443452710,12.2,23,11.1,0,0,59.9031,-3.9794,3,5
60,28/09/2015 16:05,1443456310,59.90954,-4.00917,3,2,28/09/2015 16:05,1443456302,12.2,23,11.1,0,0,59.9042,-4,3,5
61,28/09/2015 17:05,1443459917,59.90954,-4.00917,785,2,28/09/2015 17:05,1443459910,12.2,24,11.1,0,0,59.9053,-4.0047,3,5
62,28/09/2015 18:05,1443463514,59.88069,-3.9329,2,3,28/09/2015 18:05,1443463514,12.2,24,11.1,0,0,59.9053,-3.9929,3,5
63,28/09/2015 19:05,1443467112,59.90735,-4.08052,12,3,28/09/2015 19:05,1443467110,12.2,24,11.1,0,0,59.9045,-3.9717,3,5
64,28/09/2015 20:05,1443470720,59.9117,-3.9378,3,2,28/09/2015 20:05,1443470742,12.2,24,11.1,0,0,59.9042,-3.9477,3,5
65,28/09/2015 21:06,1443474377,59.88281,-3.86161,3,3,28/09/2015 21:05,1443474326,12.2,25,11.1,0,0,59.9072,-3.9188,61,3
66,28/09/2015 22:05,1443477913,59.93389,-3.79504,6,2,28/09/2015 22:05,1443477944,12.2,25,11.1,0,0,59.9099,-3.8903,3,5
67,28/09/2015 23:05,1443481511,59.93181,-3.86643,2,2,28/09/2015 23:05,1443481512,12.2,25,11.1,0,0,59.9128,-3.8723,3,5
68,29/09/2015 00:05,1443485122,59.93181,-3.86643,4,1,29/09/2015 00:05,1443485136,12.2,25,11.1,0,0,59.9162,-3.8663,3,1
69,29/09/2015 01:05,1443488712,59.88281,-3.86161,4,2,29/09/2015 01:05,1443488712,12.2,32,11.1,0,0,59.9196,-3.8718,3,1
70,29/09/2015 02:05,1443492309,59.94734,-3.29499,612,2,29/09/2015 02:05,1443492313,12.2,32,11.1,0,0,59.9223,-3.886,3,5
71,29/09/2015 03:05,1443495911,59.91381,-3.86643,3,3,29/09/2015 03:05,1443495941,12.2,32,11.1,0,0,59.9257,-3.9051,3,5
72,29/09/2015 04:05,1443499512,59.95579,-2.93751,88,2,29/09/2015 04:05,1443499509,12.157,32,11.1,0,0,59.9258,-3.9196,3,5
73,29/09/2015 05:05,1443503109,59.9117,-3.9378,2,3,29/09/2015 05:05,1443503104,12.157,28,11.1,0,0,59.9258,-3.9308,3,5
74,29/09/2015 06:06,1443506804,59.96283,-3.87126,4,2,29/09/2015 06:05,1443506712,12.157,28,11.1,0,0,59.9278,-3.9293,94,5
75,29/09/2015 07:05,1443510325,59.96491,-3.79978,2,2,29/09/2015 07:05,1443510326,12.157,28,11.1,0,0,59.9288,-3.9095,19,2
76,29/09/2015 08:07,1443514028,59.91589,-3.79504,3,2,29/09/2015 08:05,1443513912,12.157,28,11.1,0,0,59.9285,-3.8792,110,3
77,29/09/2015 09:05,1443517519,59.96283,-3.87126,6,5,29/09/2015 09:05,1443517506,12.157,31,11.1,0,0,59.9287,-3.8451,3,5
78,29/09/2015 10:05,1443521128,59.96491,-3.79978,5,2,29/09/2015 10:05,1443521142,12.157,31,11.1,0,0,59.9302,-3.8127,18,2
79,29/09/2015 11:05,1443524712,59.91589,-3.79504,7,2,29/09/2015 11:05,1443524709,12.157,31,11.1,0,0,59.9321,-3.7921,3,5
80,29/09/2015 12:05,1443528312,59.93593,-3.72364,3,2,29/09/2015 12:05,1443528303,12.157,31,11.1,0,0,59.9366,-3.7774,3,5
81,29/09/2015 13:05,1443531910,59.96895,-3.65679,4,2,29/09/2015 13:05,1443531912,12.157,30,11.1,0,0,59.9407,-3.7757,3,5
82,29/09/2015 14:05,1443535514,59.96491,-3.79978,2,2,29/09/2015 14:05,1443535513,12.157,30,11.1,0,0,59.9447,-3.7874,3,5
83,29/09/2015 15:06,1443539163,59.95855,-4.01418,17,2,29/09/2015 15:05,1443539104,12.157,30,11.1,0,0,59.9479,-3.8011,44,5
84,29/09/2015 16:05,1443542713,59.96695,-3.72829,2,2,29/09/2015 16:05,1443542712,12.157,30,11.1,0,0,59.9502,-3.8163,3,5
85,29/09/2015 17:05,1443546311,59.93792,-3.65222,7,3,29/09/2015 17:05,1443546342,12.157,27,11.1,0,0,59.9515,-3.8254,3,4
86,29/09/2015 18:05,1443549930,59.96491,-3.79978,5,3,29/09/2015 18:05,1443549908,12.157,27,11.1,0,0,59.9537,-3.8261,21,5
87,29/09/2015 19:05,1443553513,59.93593,-3.72364,10,2,29/09/2015 19:05,1443553540,12.157,27,11.1,0,0,59.955,-3.8105,3,5
88,29/09/2015 20:05,1443557113,59.93593,-3.72364,3,2,29/09/2015 20:05,1443557108,12.157,27,11.1,0,0,59.9567,-3.7838,3,5
89,29/09/2015 21:05,1443560722,59.93792,-3.65222,4,3,29/09/2015 21:05,1443560721,12.157,22,11.1,0,0,59.958,-3.7466,3,4
90,29/09/2015 22:05,1443564312,59.93792,-3.65222,8,4,29/09/2015 22:05,1443564312,12.157,22,11.1,0,0,59.9584,-3.7113,3,5
91,29/09/2015 23:05,1443567911,59.96895,-3.65679,3,2,29/09/2015 23:05,1443567911,12.157,22,11.1,0,0,59.959,-3.6806,3,5
92,30/09/2015 00:05,1443571532,59.97091,-3.58527,3,3,30/09/2015 00:05,1443571504,12.157,22,11.1,0,0,59.9589,-3.663,21,5
93,30/09/2015 01:05,1443575113,60.01992,-3.58976,6,1,30/09/2015 01:05,1443575141,12.157,25,11.1,0,0,59.9627,-3.6606,3,4
94,30/09/2015 02:05,1443578712,59.87411,-5.79589,139,1,30/09/2015 02:05,1443578741,12.157,25,11.1,0,0,59.965,-3.6703,3,5
95,30/09/2015 03:05,1443582313,59.96695,-3.72829,2,3,30/09/2015 03:05,1443582357,12.157,25,11.1,0,0,59.9669,-3.6857,3,5
96,30/09/2015 04:05,1443585922,59.97091,-3.58527,4,3,30/09/2015 04:05,1443585908,12.157,25,11.1,0,0,59.9665,-3.7073,3,5
97,30/09/2015 05:05,1443589512,59.93792,-3.65222,6,2,30/09/2015 05:05,1443589542,12.157,31,11.1,0,0,59.9649,-3.727,3,2
98,30/09/2015 06:05,1443593119,59.96071,-3.94272,11,3,30/09/2015 06:05,1443593114,12.157,31,11.1,0,0,59.9633,-3.7404,3,5
99,30/09/2015 07:05,1443596713,59.93593,-3.72364,3,2,30/09/2015 07:05,1443596700,12.157,31,11.1,0,0,59.9618,-3.7421,3,5
100,30/09/2015 08:05,1443600312,59.96695,-3.72829,6,2,30/09/2015 08:05,1443600313,12.157,31,11.1,0,0,59.9623,-3.7292,3,5
101,30/09/2015 09:05,1443603914,59.96695,-3.72829,3,2,30/09/2015 09:05,1443603935,12.157,28,11.1,0,0,59.9971,-3.652,3,4
102,30/09/2015 10:05,1443607530,59.93792,-3.65222,12,3,30/09/2015 10:05,1443607519,12.157,28,11.1,0,0,59.9621,-3.6611,20,5
103,30/09/2015 11:05,1443611110,59.97284,-3.51375,2,3,30/09/2015 11:05,1443611112,12.157,28,11.1,0,0,59.9606,-3.6309,3,5
104,30/09/2015 12:05,1443614712,59.97091,-3.58527,2,2,30/09/2015 12:05,1443614722,12.157,28,11.1,0,0,59.9587,-3.607,3,5
105,30/09/2015 13:05,1443618352,59.92381,-3.50936,4,2,30/09/2015 13:05,1443618340,12.157,26,11.1,0,0,59.9541,-3.5807,42,2
106,30/09/2015 14:05,1443621922,59.97284,-3.51375,9,2,30/09/2015 14:05,1443621914,12.157,26,11.1,0,0,59.9555,-3.5969,3,5
107,30/09/2015 15:05,1443625513,59.94181,-3.50936,4,2,30/09/2015 15:05,1443625512,12.157,26,11.1,0,0,59.9556,-3.6114,3,5
108,30/09/2015 16:05,1443629122,59.93792,-3.65222,3,2,30/09/2015 16:05,1443629159,12.157,26,11.1,0,0,59.9433,-3.6177,3,5
109,30/09/2015 17:05,1443632710,59.94369,-3.43792,8,3,30/09/2015 17:05,1443632739,12.157,27,11.1,0,0,59.9536,-3.6552,3,5
110,30/09/2015 18:05,1443636309,59.96895,-3.65679,3,2,30/09/2015 18:05,1443636312,12.157,27,11.1,0,0,59.9532,-3.6719,3,5
111,30/09/2015 19:05,1443639937,60.0491,-5.46757,130,2,30/09/2015 19:05,1443639911,12.157,27,11.1,0,0,59.9465,-3.6829,18,4
112,30/09/2015 20:05,1443643511,59.93989,-3.5808,2,2,30/09/2015 20:05,1443643502,12.157,27,11.1,0,0,59.9546,-3.6632,3,5
113,30/09/2015 21:05,1443647111,59.93792,-3.65222,4,2,30/09/2015 21:05,1443647106,12.157,32,11.1,0,0,59.9562,-3.6414,3,3
114,30/09/2015 22:05,1443650722,60.01795,-3.66136,15,2,30/09/2015 22:05,1443650759,12.157,32,11.1,0,0,59.9579,-3.6047,3,5
115,30/09/2015 23:05,1443654310,59.97473,-3.44222,2,4,30/09/2015 23:05,1443654311,12.157,32,11.1,0,0,59.9579,-3.56,3,5
116,01/10/2015 00:05,1443657913,59.97658,-3.37067,4,2,01/10/2015 00:05,1443657912,12.157,32,11.1,0,0,59.956,-3.5183,3,3
117,01/10/2015 01:05,1443661511,59.94181,-3.50936,2,2,01/10/2015 01:05,1443661512,12.157,28,11.1,0,0,59.9522,-3.4964,3,3
118,01/10/2015 02:05,1443665119,59.76443,-7.50516,244,2,01/10/2015 02:05,1443665143,12.157,28,11.1,0,0,59.9481,-3.4931,3,1
119,01/10/2015 03:05,1443668718,59.94181,-3.50936,6,2,01/10/2015 03:05,1443668742,12.157,28,11.1,0,0,59.9446,-3.5078,3,5
120,01/10/2015 04:05,1443672319,59.94181,-3.50936,3,2,01/10/2015 04:05,1443672312,12.157,28,11.1,0,0,59.9427,-3.5332,3,4
121,01/10/2015 05:05,1443675910,59.94181,-3.50936,3,2,01/10/2015 05:05,1443675930,12.114,27,11.1,0,0,59.9462,-3.5705,3,5
122,01/10/2015 06:05,1443679520,59.90054,-4.2945,75,2,01/10/2015 06:05,1443679552,12.157,27,11.1,0,0,59.9404,-3.5871,3,5
123,01/10/2015 07:05,1443683113,59.97284,-3.51375,6,4,01/10/2015 07:05,1443683141,12.157,27,11.1,0,0,59.9394,-3.5999,3,5
124,01/10/2015 08:05,1443686708,59.94181,-3.50936,3,4,01/10/2015 08:05,1443686714,12.157,27,11.1,0,0,59.9396,-3.5954,3,5
125,01/10/2015 09:05,1443690319,59.94181,-3.50936,2,2,01/10/2015 09:05,1443690303,12.157,29,11.1,0,0,59.9384,-3.5785,3,5
126,01/10/2015 10:05,1443693919,59.93989,-3.5808,3,2,01/10/2015 10:05,1443693909,12.157,29,11.1,0,0,59.939,-3.5508,3,5
127,01/10/2015 11:05,1443697511,59.92381,-3.50936,3,2,01/10/2015 11:05,1443697512,12.157,29,11.1,0,0,59.9384,-3.5157,3,5
128,01/10/2015 12:05,1443701112,59.89467,-3.43363,3,3,01/10/2015 12:05,1443701151,12.157,29,11.1,0,0,59.9372,-3.4848,3,5
129,01/10/2015 13:05,1443704711,59.92754,-3.36646,4,3,01/10/2015 13:05,1443704711,12.157,26,11.1,0,0,59.9356,-3.4632,3,5
130,01/10/2015 14:05,1443708308,59.89467,-3.43363,5,2,01/10/2015 14:05,1443708335,12.157,26,11.1,0,0,59.9349,-3.452,3,3
131,01/10/2015 15:05,1443711919,59.89651,-3.36226,4,2,01/10/2015 15:05,1443711948,12.157,26,11.1,0,0,59.9345,-3.4524,3,5
132,01/10/2015 16:05,1443715514,59.94369,-3.43792,3,2,01/10/2015 16:05,1443715535,12.157,26,11.1,0,0,59.9338,-3.4614,3,5
133,01/10/2015 17:05,1443719123,59.94181,-3.50936,3,3,01/10/2015 17:05,1443719113,12.114,33,11.1,0,0,59.9312,-3.4749,3,2
134,01/10/2015 18:05,1443722712,59.94181,-3.50936,5,306,01/10/2015 18:05,1443722700,12.114,33,11.1,0,0,59.9288,-3.4929,3,4
135,01/10/2015 19:05,1443726312,59.92569,-3.43792,5,2,01/10/2015 19:05,1443726306,12.114,33,11.1,0,0,59.9273,-3.5016,3,5
136,01/10/2015 20:05,1443729913,59.94181,-3.50936,2,4,01/10/2015 20:05,1443729921,12.114,33,11.1,0,0,59.94,-3.5007,3,5
137,01/10/2015 21:05,1443733513,59.94369,-3.43792,3,2,01/10/2015 21:05,1443733505,12.114,33,11.1,0,0,59.9283,-3.4788,3,5
138,01/10/2015 22:05,1443737112,59.89651,-3.36226,5,3,01/10/2015 22:05,1443737113,12.114,33,11.1,0,0,59.9308,-3.4522,3,2
139,01/10/2015 23:05,1443740738,59.94554,-3.36646,3,2,01/10/2015 23:05,1443740737,12.114,33,11.1,0,0,59.9338,-3.4147,20,5
140,02/10/2015 00:05,1443744313,59.94554,-3.36646,3,1,02/10/2015 00:05,1443744331,12.114,33,11.1,0,0,59.9358,-3.3761,3,5
141,02/10/2015 01:05,1443747922,59.94554,-3.36646,5,7,02/10/2015 01:05,1443747902,12.071,33,11.1,0,0,59.9397,-3.3376,3,5
142,02/10/2015 02:05,1443751512,59.97838,-3.29911,9,2,02/10/2015 02:05,1443751508,12.071,33,11.1,0,0,59.9426,-3.308,3,5
143,02/10/2015 03:05,1443755112,59.98016,-3.22755,5,2,02/10/2015 03:05,1443755112,12.071,33,11.1,0,0,59.9447,-3.2881,3,5
144,02/10/2015 04:05,1443758712,59.80233,-7.15156,227,2,02/10/2015 04:05,1443758742,12.071,33,11.1,0,0,59.9453,-3.2803,3,1
145,02/10/2015 05:05,1443762309,59.94734,-3.29499,2,3,02/10/2015 05:05,1443762312,12.071,37,11.1,0,0,59.9449,-3.2802,3,5
146,02/10/2015 06:05,1443765911,59.94734,-3.29499,3,2,02/10/2015 06:05,1443765912,12.071,37,11.1,0,0,59.9435,-3.2889,3,1
147,02/10/2015 07:05,1443769520,59.98016,-3.22755,7,4,02/10/2015 07:05,1443769509,12.028,37,11.1,0,0,59.9427,-3.2978,3,3
148,02/10/2015 08:06,1443773218,59.94911,-3.22352,4,4,02/10/2015 08:05,1443773111,12.028,37,11.1,0,0,59.9437,-3.3067,110,2
149,02/10/2015 09:05,1443776709,59.98016,-3.22755,5,3,02/10/2015 09:05,1443776744,12.028,29,11.1,0,0,59.9481,-3.3079,3,3
150,02/10/2015 10:05,1443780313,59.97838,-3.29911,14,2,02/10/2015 10:05,1443780330,12.028,29,11.1,0,0,59.9556,-3.2947,3,3
151,02/10/2015 11:05,1443783911,59.94911,-3.22352,4,2,02/10/2015 11:05,1443783915,12.028,29,11.1,0,0,59.9631,-3.2664,3,5
152,02/10/2015 12:05,1443787546,59.98189,-3.15597,3,2,02/10/2015 12:05,1443787519,12.028,29,11.1,0,0,59.9699,-3.2225,38,2
153,02/10/2015 13:05,1443791111,59.98358,-3.08438,3,2,02/10/2015 13:05,1443791141,12.028,30,11.1,0,0,59.9735,-3.1768,3,5
154,02/10/2015 14:05,1443794712,59.98189,-3.15597,3,2,02/10/2015 14:05,1443794712,12.028,30,11.1,0,0,59.973,-3.1395,3,5
155,02/10/2015 15:05,1443798313,59.95084,-3.15203,12,3,02/10/2015 15:05,1443798304,12.028,30,11.1,0,0,59.9713,-3.1164,3,4
156,02/10/2015 16:05,1443801929,59.95418,-3.00902,2,2,02/10/2015 16:05,1443801931,12.028,30,11.1,0,0,59.9702,-3.1121,20,5
157,02/10/2015 17:05,1443805510,59.95418,-3.00902,3,2,02/10/2015 17:05,1443805512,12.028,26,11.1,0,0,59.9703,-3.122,3,5
158,02/10/2015 18:05,1443809110,59.98189,-3.15597,2,2,02/10/2015 18:05,1443809117,12.028,26,11.1,0,0,59.9723,-3.1421,3,5
159,02/10/2015 19:05,1443812737,60.19785,0.14432,206,2,02/10/2015 19:05,1443812742,12.028,26,11.1,0,0,59.89,-3.2082,28,5
160,02/10/2015 20:05,1443816309,59.98189,-3.15597,3,2,02/10/2015 20:05,1443816343,11.985,26,11.1,0,0,59.9845,-3.1841,3,3
161,02/10/2015 21:05,1443819912,59.98189,-3.15597,4,2,02/10/2015 21:05,1443819908,11.985,27,11,0,0,59.9928,-3.1875,3,4
162,02/10/2015 22:05,1443823519,59.99985,-3.15597,5,2,02/10/2015 22:05,1443823531,11.985,27,11.1,0,0,60.0028,-3.1783,3,5
163,02/10/2015 23:05,1443827110,60.03426,-3.01656,5,3,02/10/2015 23:05,1443827142,11.985,27,11.1,0,0,60.0126,-3.1591,3,5
164,03/10/2015 00:05,1443830739,60.06368,-3.09212,10,1,03/10/2015 00:05,1443830721,11.985,27,11.1,0,0,60.0211,-3.1259,21,4
165,03/10/2015 01:05,1443834312,60.0326,-3.08825,8,2,03/10/2015 01:05,1443834344,11.985,24,11,0,0,60.0267,-3.0837,3,5
166,03/10/2015 02:05,1443837909,60.03588,-2.94487,3,2,03/10/2015 02:05,1443837943,11.985,24,11.1,0,0,60.0288,-3.0432,3,5
167,03/10/2015 03:05,1443841510,60.03426,-3.01656,2,2,03/10/2015 03:05,1443841512,11.985,24,11.1,0,0,60.0271,-3.0124,3,5
168,03/10/2015 04:05,1443845159,59.81985,-9.54453,377,2,03/10/2015 04:05,1443845108,11.985,24,11.1,0,0,60.0251,-2.9957,37,5
169,03/10/2015 05:05,1443848710,60.0032,-3.01279,8,2,03/10/2015 05:05,1443848712,11.985,27,11,0,0,60.0241,-2.9962,3,3
170,03/10/2015 06:05,1443852310,60.03588,-2.94487,5,3,03/10/2015 06:05,1443852312,11.985,27,11.1,0,0,60.0263,-3.0096,3,5
171,03/10/2015 07:05,1443855936,60.03426,-3.01656,4,2,03/10/2015 07:05,1443855942,11.942,27,11.1,0,0,60.0305,-3.0269,18,5
172,03/10/2015 08:05,1443859510,60.03426,-3.01656,4,4,03/10/2015 08:05,1443859512,11.942,27,11,0,0,60.0346,-3.0397,3,2
173,03/10/2015 09:05,1443863109,60.03426,-3.01656,3,3,03/10/2015 09:05,1443863129,11.942,24,11,0,0,60.0406,-3.045,3,5
174,03/10/2015 10:05,1443866712,59.90673,-0.64375,159,2,03/10/2015 10:05,1443866712,11.942,24,11,0,0,60.0477,-3.0405,3,4
175,03/10/2015 11:05,1443870310,60.03588,-2.94487,2,2,03/10/2015 11:05,1443870309,11.899,24,11.1,0,0,60.0546,-3.026,3,5
176,03/10/2015 12:05,1443873919,60.0816,-3.09212,4,2,03/10/2015 12:05,1443873942,11.899,24,11.1,0,0,60.0603,-3.0026,3,5
177,03/10/2015 13:05,1443877511,60.03588,-2.94487,12,2,03/10/2015 13:05,1443877502,11.942,28,11,0,0,60.0639,-2.9749,3,4
178,03/10/2015 14:05,1443881122,60.08488,-2.94856,21,2,03/10/2015 14:05,1443881112,11.942,28,11.1,0,0,60.0654,-2.9462,3,5
179,03/10/2015 15:05,1443884711,60.08488,-2.94856,6,2,03/10/2015 15:05,1443884712,11.942,28,11,0,0,60.0647,-2.9223,3,5
180,03/10/2015 16:05,1443888313,60.03746,-2.87316,4,2,03/10/2015 16:05,1443888358,11.899,28,11.1,0,0,60.0643,-2.9081,3,5
181,03/10/2015 17:05,1443891909,60.08646,-2.87677,5,3,03/10/2015 17:05,1443891927,11.899,26,11,0,0,60.0656,-2.9068,3,5
182,03/10/2015 18:05,1443895511,60.08646,-2.87677,4,3,03/10/2015 18:05,1443895502,11.899,26,11,0,0,60.0689,-2.9147,3,5
183,03/10/2015 19:05,1443899122,60.03588,-2.94487,9,2,03/10/2015 19:05,1443899111,11.899,26,11.1,0,0,60.0754,-2.9254,3,5
184,03/10/2015 20:05,1443902711,60.08646,-2.87677,3,2,03/10/2015 20:05,1443902706,11.899,26,11.1,0,0,60.0815,-2.9386,3,5
185,03/10/2015 21:05,1443906311,60.03588,-2.94487,4,4,03/10/2015 21:05,1443906311,11.856,28,11,0,0,60.0879,-2.9441,3,3
186,03/10/2015 22:05,1443909914,60.11756,-2.88038,8,2,03/10/2015 22:05,1443909941,11.856,28,11,0,0,60.0932,-2.943,3,4
187,03/10/2015 23:05,1443913523,60.11911,-2.80848,3,2,03/10/2015 23:05,1443913513,11.899,28,11,0,0,60.1006,-2.9325,3,5
188,04/10/2015 00:05,1443917123,60.08646,-2.87677,6,2,04/10/2015 00:05,1443917129,11.856,28,11,0,0,60.1051,-2.9137,3,4
189,04/10/2015 01:05,1443920712,60.11598,-2.95226,3,2,04/10/2015 01:05,1443920711,11.856,27,11,0,0,60.1074,-2.8864,3,4
190,04/10/2015 02:05,1443924337,60.08801,-2.80496,8,2,04/10/2015 02:05,1443924341,11.856,27,11.1,0,0,60.1062,-2.8557,27,5
191,04/10/2015 03:05,1443927912,60.09098,-2.66133,10,2,04/10/2015 03:05,1443927913,11.856,27,11.1,0,0,60.1011,-2.8295,3,5
192,04/10/2015 04:05,1443931513,60.08801,-2.80496,3,2,04/10/2015 04:05,1443931540,11.856,27,11.1,0,0,60.095,-2.8126,3,5
193,04/10/2015 05:05,1443935125,60.08951,-2.73315,3,3,04/10/2015 05:05,1443935141,11.856,27,11.1,0,0,60.0912,-2.8124,18,4
194,04/10/2015 06:05,1443938711,60.08951,-2.73315,5,2,04/10/2015 06:05,1443938711,11.856,27,11.1,0,0,60.091,-2.8253,3,5
195,04/10/2015 07:05,1443942310,60.11911,-2.80848,5,3,04/10/2015 07:05,1443942313,11.813,27,11.1,0,0,60.0945,-2.8447,3,5
196,04/10/2015 08:05,1443945922,60.12061,-2.73658,4,3,04/10/2015 08:05,1443945942,11.856,27,11.1,0,0,60.1013,-2.8658,3,4
197,04/10/2015 09:05,1443949512,60.11911,-2.80848,2,1,04/10/2015 09:05,1443949514,11.856,23,11,0,0,60.1101,-2.8788,3,5
198,04/10/2015 10:05,1443953112,60.10129,-2.08649,66,2,04/10/2015 10:05,1443953106,11.856,23,11.1,0,0,60.1198,-2.8826,3,5
199,04/10/2015 11:05,1443956712,60.11756,-2.88038,2,2,04/10/2015 11:05,1443956712,11.899,23,11.1,0,0,60.1299,-2.8765,3,5
200,04/10/2015 12:05,1443960314,60.11911,-2.80848,3,2,04/10/2015 12:05,1443960312,11.942,23,11,0,0,60.1388,-2.8624,3,2
201,04/10/2015 13:05,1443963912,60.1681,-2.81202,5,3,04/10/2015 13:05,1443963912,11.899,22,11,0,0,60.1447,-2.8395,3,5
202,04/10/2015 14:05,1443967532,60.11911,-2.80848,11,2,04/10/2015 14:05,1443967511,11.942,22,11.1,0,0,60.1502,-2.8107,27,5
203,04/10/2015 15:05,1443971111,60.16961,-2.74002,3,2,04/10/2015 15:05,1443971142,11.942,22,11.1,0,0,60.1487,-2.7892,3,5
204,04/10/2015 16:05,1443974711,60.1681,-2.81202,5,2,04/10/2015 16:05,1443974736,11.942,22,11.1,0,0,60.147,-2.7683,3,5
205,04/10/2015 17:05,1443978309,60.16961,-2.74002,3,2,04/10/2015 17:05,1443978314,11.899,21,11,0,0,60.1449,-2.7572,3,5
206,04/10/2015 18:05,1443981925,60.16961,-2.74002,6,2,04/10/2015 18:05,1443981944,11.899,21,11.1,0,0,60.1445,-2.7563,18,1
207,04/10/2015 19:05,1443985507,60.12208,-2.66467,2,2,04/10/2015 19:05,1443985510,11.899,21,11.1,0,0,60.1469,-2.7642,3,5
208,04/10/2015 20:05,1443989111,60.1681,-2.81202,2,2,04/10/2015 20:05,1443989145,11.856,21,11.1,0,0,60.1505,-2.7759,3,5
209,04/10/2015 21:05,1443992710,60.1681,-2.81202,3,2,04/10/2015 21:05,1443992742,11.856,21,11,0,0,60.1563,-2.7888,3,5
210,04/10/2015 22:05,1443996309,60.16961,-2.74002,2,2,04/10/2015 22:05,1443996327,11.856,21,11.1,0,0,60.163,-2.7961,3,5
211,04/10/2015 23:05,1443999918,60.20365,-2.59928,4,3,04/10/2015 23:05,1443999903,11.856,21,11.1,0,0,60.1703,-2.7976,3,3
212,05/10/2015 00:05,1444003510,60.19923,-2.81556,3,2,05/10/2015 00:05,1444003510,11.899,21,11,0,0,60.1773,-2.7941,3,5
213,05/10/2015 01:05,1444007112,60.53449,2.04281,280,2,05/10/2015 01:05,1444007110,11.856,25,11,0,0,60.1839,-2.7841,3,5
214,05/10/2015 02:05,1444010708,60.24972,-2.74693,5,3,05/10/2015 02:05,1444010713,11.856,25,11.1,0,0,60.19,-2.7675,3,5
215,05/10/2015 03:05,1444014319,60.22006,-2.67138,7,2,05/10/2015 03:05,1444014311,11.856,25,11,0,0,60.1946,-2.7446,3,5
216,05/10/2015 04:05,1444017911,60.17108,-2.66802,3,2,05/10/2015 04:05,1444017936,11.856,25,11.1,0,0,60.1974,-2.7208,3,2
217,05/10/2015 05:05,1444021510,60.20221,-2.67138,3,2,05/10/2015 05:05,1444021512,11.856,22,11,0,0,60.1976,-2.7004,3,5
218,05/10/2015 06:05,1444025119,60.20074,-2.74347,3,2,05/10/2015 06:05,1444025112,11.856,22,11,0,0,60.1977,-2.6876,3,5
219,05/10/2015 07:05,1444028712,60.2567,-2.38594,10,2,05/10/2015 07:05,1444028713,11.856,22,11.1,0,0,60.1988,-2.6814,3,3
220,05/10/2015 08:07,1444032456,60.20221,-2.67138,4,2,05/10/2015 08:05,1444032313,11.856,22,11,0,0,60.2007,-2.6815,149,5
221,05/10/2015 09:05,1444035912,60.20221,-2.67138,2,3,05/10/2015 09:05,1444035954,11.856,24,11,0,0,60.2037,-2.6848,3,5
222,05/10/2015 10:05,1444039525,60.22149,-2.59928,19,2,05/10/2015 10:05,1444039512,11.856,24,11,0,0,60.2088,-2.6887,18,3
223,05/10/2015 11:05,1444043115,60.20221,-2.67138,3,2,05/10/2015 11:05,1444043130,11.856,24,11,0,0,60.216,-2.6895,3,5
224,05/10/2015 12:05,1444046711,60.15453,-1.80116,101,2,05/10/2015 12:05,1444046711,11.856,24,11,0,0,60.2227,-2.6847,3,5
225,05/10/2015 13:05,1444050312,60.20365,-2.59928,5,3,05/10/2015 13:05,1444050306,11.856,28,11,0,0,60.2296,-2.6725,3,5
226,05/10/2015 14:05,1444053911,60.19291,-1.15442,93,2,05/10/2015 14:05,1444053912,11.856,28,11,0,0,60.2356,-2.6576,3,5
227,05/10/2015 15:05,1444057527,60.22149,-2.59928,8,3,05/10/2015 15:05,1444057547,11.856,28,11,0,0,60.2418,-2.6394,20,4
228,05/10/2015 16:05,1444061112,60.06587,0.86261,224,2,05/10/2015 16:05,1444061108,11.813,28,11.1,0,0,60.2483,-2.6225,3,5
229,05/10/2015 17:05,1444064710,60.25403,-2.53036,2,3,05/10/2015 17:05,1444064745,11.77,28,11,0,0,60.2536,-2.6059,3,5
230,05/10/2015 18:05,1444068313,60.25263,-2.60256,2,4,05/10/2015 18:05,1444068305,11.77,28,11,0,0,60.2573,-2.5898,3,5
231,05/10/2015 19:05,1444071930,60.16973,-3.9675,132,3,05/10/2015 19:05,1444071911,11.77,28,11.1,0,0,60.2597,-2.5797,21,2
232,05/10/2015 20:05,1444075512,60.25403,-2.53036,3,4,05/10/2015 20:05,1444075512,11.77,28,11,0,0,60.2622,-2.5737,3,5
233,05/10/2015 21:05,1444079130,60.31759,-1.59315,82,2,05/10/2015 21:05,1444079105,11.77,27,11,0,0,60.2652,-2.5732,23,5
234,05/10/2015 22:05,1444082711,60.30299,-2.53356,3,2,05/10/2015 22:05,1444082714,11.813,27,11,0,0,60.2713,-2.575,3,5
235,05/10/2015 23:05,1444086316,60.35448,-1.01526,114,2,05/10/2015 23:05,1444086349,11.813,27,11,0,0,60.2783,-2.5763,3,5
236,06/10/2015 00:05,1444089909,60.33276,-2.60914,5,2,06/10/2015 00:05,1444089945,11.77,27,11,0,0,60.2874,-2.5772,3,5
237,06/10/2015 01:05,1444093511,60.33416,-2.53676,14,2,06/10/2015 01:05,1444093500,11.77,32,11,0,0,0,0,3,4
238,06/10/2015 02:05,1444097107,60.30299,-2.53356,2,3,06/10/2015 02:05,1444097129,11.77,32,11.1,0,0,60.3114,-2.5776,3,5
239,06/10/2015 03:05,1444100711,60.33276,-2.60914,3,2,06/10/2015 03:05,1444100722,11.77,32,11,0,0,60.325,-2.5695,3,5
240,06/10/2015 04:05,1444104308,60.38171,-2.61244,14,2,06/10/2015 04:05,1444104300,11.727,32,11,0,0,0,0,3,5
241,06/10/2015 05:05,1444107909,60.33552,-2.46437,15,3,06/10/2015 05:05,1444107913,11.77,29,11,0,0,60.3494,-2.5289,3,5
242,06/10/2015 06:05,1444111511,60.38448,-2.46749,3,3,06/10/2015 06:05,1444111533,11.77,29,11.1,0,0,60.3566,-2.5077,3,5
243,06/10/2015 07:05,1444115110,60.33552,-2.46437,3,3,06/10/2015 07:05,1444115143,11.77,29,11,0,0,60.3617,-2.4897,3,5
244,06/10/2015 08:05,1444118731,60.33552,-2.46437,4,2,06/10/2015 08:05,1444118711,11.77,29,11,0,0,60.3656,-2.4786,18,2
245,06/10/2015 09:05,1444122308,60.38448,-2.46749,3,3,06/10/2015 09:05,1444122337,11.77,33,11,0,0,60.3683,-2.4722,3,5
246,06/10/2015 10:05,1444125907,60.49725,-4.73945,141,4,06/10/2015 10:05,1444125941,11.813,33,11,0,0,60.3734,-2.4715,3,5
247,06/10/2015 11:05,1444129507,60.3858,-2.39501,2,3,06/10/2015 11:05,1444129525,11.813,33,11,0,0,60.3795,-2.4742,3,5
248,06/10/2015 12:05,1444133109,60.44374,-3.41767,88,2,06/10/2015 12:05,1444133139,11.77,33,11,0,0,60.3883,-2.4808,3,5
249,06/10/2015 13:05,1444136711,60.38311,-2.53997,8,2,06/10/2015 13:05,1444136710,11.77,26,11,0,0,60.3982,-2.4855,3,5
250,06/10/2015 14:05,1444140312,60.41431,-2.54319,3,5,06/10/2015 14:05,1444140312,11.727,26,11,0,0,60.4096,-2.4895,3,5
251,06/10/2015 15:05,1444143952,60.46461,-2.47376,5,3,06/10/2015 15:05,1444143925,11.727,26,11,0,0,60.4223,-2.4865,35,2
252,06/10/2015 16:05,1444147543,60.41829,-2.32545,15,2,06/10/2015 16:05,1444147542,11.727,26,11,0,0,60.4344,-2.4764,38,3
253,06/10/2015 17:05,1444151107,60.46594,-2.40108,5,3,06/10/2015 17:05,1444151112,11.684,39,11,0,0,60.4444,-2.4654,3,5